Time,TemperatureF,DewpointF,PressureIn,WindDirection,WindDirectionDegrees,WindSpeedMPH,WindSpeedGustMPH,Humidity,HourlyPrecipIn,Conditions,Clouds,dailyrainin,SoftwareType,DateUTC
2013-02-22 00:00:00,18.0,-99.9,-100.00,North,0,5.0,6.0,-999,-99.99,,,-99.99,,2013-02-22 07:00:00,
2013-02-22 00:52:00,18.0,-99.9,-100.00,North,0,5.0,6.0,-999,-99.99,,,-99.99,,2013-02-22 07:52:00,
2013-02-22 01:00:00,18.0,-99.9,-100.00,North,351,5.0,6.0,-999,-99.99,,,-99.99,,2013-02-22 08:00:00,
2013-02-22 01:52:00,18.0,-99.9,-100.00,North,351,5.0,6.0,-999,-99.99,,,-99.99,,2013-02-22 08:52:00,
2013-02-22 02:00:00,14.0,-99.9,-100.00,West,278,8.0,8.0,-999,-99.99,,,-99.99,,2013-02-22 09:00:00,
2013-02-22 02:52:00,14.0,-99.9,-100.00,West,278,8.0,8.0,-999,-99.99,,,-99.99,,2013-02-22 09:52:00,
2013-02-22 03:00:00,13.0,-99.9,-100.00,West,262,7.0,8.0,-999,-99.99,,,-99.99,,2013-02-22 10:00:00,
2013-02-22 03:52:00,13.0,-99.9,-100.00,West,262,7.0,8.0,-999,-99.99,,,-99.99,,2013-02-22 10:52:00,
2013-02-22 04:00:00,13.0,-99.9,-100.00,WNW,283,5.0,5.0,-999,-99.99,,,-99.99,,2013-02-22 11:00:00,
2013-02-22 04:52:00,13.0,-99.9,-100.00,WNW,283,5.0,5.0,-999,-99.99,,,-99.99,,2013-02-22 11:52:00,
2013-02-22 05:52:00,11.0,-99.9,-100.00,West,270,7.0,7.0,-999,-99.99,,,-99.99,,2013-02-22 12:52:00,
2013-02-22 06:00:00,7.0,-99.9,-100.00,NW,304,5.0,6.0,-999,-99.99,,,-99.99,,2013-02-22 13:00:00,
2013-02-22 06:52:00,7.0,-99.9,-100.00,NW,304,5.0,6.0,-999,-99.99,,,-99.99,,2013-02-22 13:52:00,
2013-02-22 07:53:00,11.0,-99.9,-100.00,WNW,285,4.0,5.0,-999,-99.99,,,-99.99,,2013-02-22 14:53:00,
2013-02-22 08:00:00,14.0,-99.9,-100.00,WNW,283,8.0,9.0,-999,-99.99,,,-99.99,,2013-02-22 15:00:00,
2013-02-22 08:52:00,14.0,-99.9,-100.00,WNW,283,8.0,9.0,-999,-99.99,,,-99.99,,2013-02-22 15:52:00,
2013-02-22 09:00:00,20.0,-99.9,-100.00,West,273,7.0,9.0,-999,-99.99,,,-99.99,,2013-02-22 16:00:00,
2013-02-22 09:52:00,20.0,-99.9,-100.00,West,273,7.0,9.0,-999,-99.99,,,-99.99,,2013-02-22 16:52:00,
2013-02-22 10:00:00,23.0,-99.9,-100.00,WSW,242,7.0,8.0,-999,-99.99,,,-99.99,,2013-02-22 17:00:00,
2013-02-22 10:52:00,23.0,-99.9,-100.00,WSW,242,7.0,8.0,-999,-99.99,,,-99.99,,2013-02-22 17:52:00,
2013-02-22 11:00:00,27.0,-99.9,-100.00,WNW,296,4.0,7.0,-999,-99.99,,,-99.99,,2013-02-22 18:00:00,
2013-02-22 11:52:00,27.0,-99.9,-100.00,WNW,296,4.0,7.0,-999,-99.99,,,-99.99,,2013-02-22 18:52:00,
2013-02-22 12:00:00,31.0,-99.9,-100.00,WNW,288,7.0,9.0,-999,-99.99,,,-99.99,,2013-02-22 19:00:00,
2013-02-22 12:52:00,31.0,-99.9,-100.00,WNW,288,7.0,9.0,-999,-99.99,,,-99.99,,2013-02-22 19:52:00,
2013-02-22 13:00:00,32.0,-99.9,-100.00,NW,317,9.0,10.0,-999,-99.99,,,-99.99,,2013-02-22 20:00:00,
2013-02-22 13:52:00,32.0,-99.9,-100.00,NW,317,9.0,10.0,-999,-99.99,,,-99.99,,2013-02-22 20:52:00,
2013-02-22 14:00:00,32.0,-99.9,-100.00,NW,321,9.0,10.0,-999,-99.99,,,-99.99,,2013-02-22 21:00:00,
2013-02-22 14:52:00,32.0,-99.9,-100.00,NW,321,9.0,10.0,-999,-99.99,,,-99.99,,2013-02-22 21:52:00,
2013-02-22 15:00:00,33.0,-99.9,-100.00,NW,315,10.0,12.0,-999,-99.99,,,-99.99,,2013-02-22 22:00:00,
2013-02-22 15:52:00,33.0,-99.9,-100.00,NW,315,10.0,12.0,-999,-99.99,,,-99.99,,2013-02-22 22:52:00,
2013-02-22 16:00:00,35.0,-99.9,-100.00,NW,304,6.0,6.0,-999,-99.99,,,-99.99,,2013-02-22 23:00:00,
2013-02-22 16:52:00,35.0,-99.9,-100.00,NW,304,6.0,6.0,-999,-99.99,,,-99.99,,2013-02-22 23:52:00,
2013-02-22 17:00:00,31.0,-99.9,-100.00,NW,304,5.0,7.0,-999,-99.99,,,-99.99,,2013-02-23 00:00:00,
2013-02-22 17:52:00,31.0,-99.9,-100.00,NW,304,5.0,7.0,-999,-99.99,,,-99.99,,2013-02-23 00:52:00,
2013-02-22 18:00:00,25.0,-99.9,-100.00,WNW,289,4.0,4.0,-999,-99.99,,,-99.99,,2013-02-23 01:00:00,
2013-02-22 18:52:00,25.0,-99.9,-100.00,WNW,289,4.0,4.0,-999,-99.99,,,-99.99,,2013-02-23 01:52:00,
2013-02-22 19:00:00,20.0,-99.9,-100.00,SSE,155,1.0,3.0,-999,-99.99,,,-99.99,,2013-02-23 02:00:00,
2013-02-22 19:52:00,20.0,-99.9,-100.00,SSE,155,1.0,3.0,-999,-99.99,,,-99.99,,2013-02-23 02:52:00,
2013-02-22 20:00:00,18.0,-99.9,-100.00,West,270,2.0,4.0,-999,-99.99,,,-99.99,,2013-02-23 03:00:00,
2013-02-22 20:52:00,18.0,-99.9,-100.00,West,270,2.0,4.0,-999,-99.99,,,-99.99,,2013-02-23 03:52:00,
2013-02-22 21:00:00,16.0,-99.9,-100.00,WNW,288,6.0,7.0,-999,-99.99,,,-99.99,,2013-02-23 04:00:00,
2013-02-22 21:52:00,16.0,-99.9,-100.00,WNW,288,6.0,7.0,-999,-99.99,,,-99.99,,2013-02-23 04:52:00,
2013-02-22 22:00:00,18.0,-99.9,-100.00,WNW,292,4.0,5.0,-999,-99.99,,,-99.99,,2013-02-23 05:00:00,
2013-02-22 22:52:00,18.0,-99.9,-100.00,WNW,292,4.0,5.0,-999,-99.99,,,-99.99,,2013-02-23 05:52:00,
2013-02-22 23:00:00,16.0,-99.9,-100.00,NW,304,5.0,10.0,-999,-99.99,,,-99.99,,2013-02-23 06:00:00,
2013-02-22 23:52:00,16.0,-99.9,-100.00,NW,304,5.0,10.0,-999,-99.99,,,-99.99,,2013-02-23 06:52:00,